This is the latest recevied weather packets stored in our database for station/object JS2WAD-13. If no packets are shown the sender has not sent any weather packets the latest 10 day(s).
| Time | Temp. | Humidity | Pressure | Rain* | Wind** | Luminosity | Snow |
|---|---|---|---|---|---|---|---|
| 1778128277 | 27.78° C | 49% | 902.1 hPa | 0 mm | - | 928 W/m² | - |
| 1778127977 | 27.78° C | 48% | 901.9 hPa | 0 mm | - | 916 W/m² | - |
| 1778127677 | 27.22° C | 49% | 902.1 hPa | 0 mm | - | 907 W/m² | - |
| 1778127377 | 27.22° C | 48% | 902.2 hPa | 0 mm | - | 397 W/m² | - |
| 1778127077 | 27.78° C | 48% | 902.2 hPa | 0 mm | - | 95 W/m² | - |
| 1778126778 | 27.22° C | 49% | 902.1 hPa | 0 mm | - | 79 W/m² | - |
| 1778126477 | 27.22° C | 49% | 902 hPa | 0 mm | - | 805 W/m² | - |
| 1778126177 | 27.22° C | 49% | 902.2 hPa | 0 mm | - | 942 W/m² | - |
| 1778125877 | 26.67° C | 49% | 902.2 hPa | 0 mm | - | 970 W/m² | - |
| 1778125577 | 26.67° C | 50% | 902.7 hPa | 0 mm | - | 1002 W/m² | - |
| 1778125277 | 26.67° C | 50% | 902.7 hPa | 0 mm | - | 457 W/m² | - |
| 1778124977 | 26.67° C | 49% | 903 hPa | 0 mm | - | 471 W/m² | - |
| 1778124677 | 26.67° C | 48% | 903 hPa | 0 mm | - | 548 W/m² | - |
| 1778124377 | 26.67° C | 48% | 903.3 hPa | 0 mm | - | 394 W/m² | - |
| 1778124077 | 26.11° C | 50% | 903.2 hPa | 0 mm | - | 427 W/m² | - |
| 1778123778 | 26.11° C | 52% | 903.3 hPa | 0 mm | - | 519 W/m² | - |
| 1778123478 | 26.11° C | 52% | 903 hPa | 0 mm | - | 631 W/m² | - |
| 1778123177 | 25.56° C | 51% | 903.5 hPa | 0 mm | - | 302 W/m² | - |
| 1778122878 | 25.56° C | 52% | 903.6 hPa | 0 mm | - | 373 W/m² | - |
| 1778122578 | 25.56° C | 57% | 903.5 hPa | 0 mm | - | 408 W/m² | - |
| 1778122278 | 25° C | 52% | 903.5 hPa | 0 mm | - | 805 W/m² | - |
| 1778121978 | 25° C | 53% | 903.8 hPa | 0 mm | - | 606 W/m² | - |
| 1778121678 | 25° C | 55% | 903.7 hPa | 0 mm | - | 506 W/m² | - |
| 1778121377 | 25° C | 53% | 903.9 hPa | 0 mm | - | 359 W/m² | - |
| 1778121078 | 25° C | 53% | 903.9 hPa | 0 mm | - | 554 W/m² | - |
* Rain latest hour (hover to see other rain measurements)
** Current wind speed in m/s (hover to see current wind gust speed)